Date,TemperatureHighF,TemperatureAvgF,TemperatureLowF,DewpointHighF,DewpointAvgF,DewpointLowF,HumidityHigh,HumidityAvg,HumidityLow,PressureMaxIn,PressureMinIn,WindSpeedMaxMPH,WindSpeedAvgMPH,GustSpeedMaxMPH,PrecipitationSumIn
2013-5-1,38.2,29.5,23.0,23.0,19.2,13.0,91,68,47,29.98,29.75,6,1,11,0.01
2013-5-2,37.8,28.9,19.5,23.0,17.0,12.0,74,62,47,30.02,29.82,3,0,6,0.00
2013-5-3,43.1,32.3,25.4,30.0,25.9,21.0,92,79,54,30.05,29.92,3,0,8,0.04
2013-5-4,32.4,27.1,21.1,24.0,21.9,19.0,93,81,68,30.09,29.99,4,0,6,0.00
2013-5-5,38.9,30.2,19.4,21.0,15.1,10.0,90,58,33,30.24,30.10,5,1,9,0.01
2013-5-6,43.9,33.1,18.5,16.0,13.1,11.0,75,47,27,30.30,30.22,5,1,9,0.00
2013-5-7,45.7,36.1,24.4,21.0,16.3,13.0,72,47,30,30.36,30.29,6,1,10,0.00
2013-5-8,50.0,38.5,24.0,21.0,17.7,14.0,80,47,25,30.42,30.33,6,1,8,0.00
2013-5-9,57.7,44.1,27.8,24.0,20.5,18.0,78,44,22,30.46,30.27,5,0,6,0.00
2013-5-10,57.1,47.9,37.1,28.0,21.9,15.0,66,39,21,30.30,30.02,3,0,7,0.00
2013-5-11,59.2,47.9,35.3,29.0,25.3,19.0,70,43,26,30.02,29.72,7,0,7,0.00
2013-5-12,50.5,42.6,35.7,31.0,27.7,23.0,72,57,36,29.72,29.54,5,0,9,0.00
2013-5-13,38.5,29.6,23.3,28.0,8.3,2.0,70,41,31,29.75,29.58,5,1,9,0.00
2013-5-14,40.5,31.1,21.6,15.0,11.6,7.0,65,46,30,29.78,29.71,5,1,8,0.00
2013-5-15,48.6,37.0,22.4,20.0,16.0,12.0,74,45,27,29.80,29.72,4,1,11,0.00
2013-5-16,52.9,41.9,28.4,27.0,22.1,17.0,72,47,28,29.77,29.49,7,0,8,0.00
2013-5-17,41.4,34.1,25.9,31.0,28.3,23.0,91,80,56,29.74,29.46,5,1,7,0.00
2013-5-18,31.7,26.1,21.3,23.0,11.5,4.0,91,57,32,30.29,29.75,7,1,9,0.00
2013-5-19,43.1,31.9,18.4,14.0,9.8,5.0,70,43,25,30.68,30.31,4,1,10,0.01
2013-5-20,53.2,41.4,25.7,19.0,14.8,11.0,71,38,20,30.75,30.51,6,1,7,0.00
2013-5-21,61.4,48.0,29.8,22.0,16.9,11.0,68,34,14,30.55,30.21,5,1,7,0.00
2013-5-22,65.8,52.7,36.6,28.0,24.2,20.0,61,36,19,30.21,30.01,4,1,8,0.00
2013-5-23,63.1,51.5,35.9,40.0,32.7,27.0,72,50,35,30.17,30.07,7,1,11,0.00
2013-5-24,69.1,57.0,39.9,40.0,36.1,31.0,85,50,25,30.21,30.03,5,0,6,0.00
2013-5-25,75.1,61.8,46.7,34.0,30.9,27.0,58,34,18,30.05,29.86,4,0,6,0.00
2013-5-26,78.8,62.6,41.0,40.0,33.4,29.0,69,37,17,29.93,29.82,4,0,7,0.00
2013-5-27,80.7,66.6,48.5,40.0,38.0,35.0,64,38,21,29.92,29.79,3,0,6,0.00
2013-5-28,82.2,67.5,52.6,42.0,37.8,33.0,57,36,18,29.84,29.71,5,0,6,0.00
2013-5-29,80.6,69.1,55.2,40.0,35.6,31.0,51,31,17,29.75,29.68,5,0,8,0.00
2013-5-30,81.8,69.0,51.1,43.0,35.9,26.0,66,33,14,29.88,29.74,4,0,7,0.00
2013-5-31,81.4,66.6,50.8,50.0,39.2,24.0,69,41,14,30.02,29.89,4,1,10,0.00